Regional Weather Roundup
Issued by NWS Wakefield, VA

Home | Current Version | Previous Version | Graphics & Text | Print | Product List | Glossary On
Versions: 1 2 3 4 5 6 7 8 9 10 11 12 13 14 15 16 17 18 19 20 21 22 23 24 25 26 27 28 29 30 31 32 33 34 35 36 37 38 39 40 41 42 43 44 45 46 47 48 49 50
000
ASUS41 KAKQ 250110
RWRAKQ

REGIONAL WEATHER ROUNDUP
NATIONAL WEATHER SERVICE WAKEFIELD VA
800 PM EST WED DEC 24 2014

Note: "fair" indicates few or no clouds below 12,000 feet with no
significant weather and/or obstructions to visibility. * = Denotes
station may not report precipitation (e.g., rain,snow,etc.),
thunder or fog.

VAZ042-051-052>054-056-250200-
NORTHERN VIRGINIA

CITY           SKY/WX    TMP DP  RH WIND       PRES   REMARKS
WASH NATIONAL  CLOUDY    52  48  87 S6        29.61F
DULLES         FOG       50  50 100 S7        29.58F VSB 1/4
FORT BELVOIR   CLOUDY    49  49  97 SE1       29.61F FOG
QUANTICO       FOG       46  44  93 S6        29.62S VSB 3/4
FREDERICKSBRG* CLOUDY    54  54 100 S7        29.60F FOG
STAFFORD*      CLOUDY    52  32  46 S5        29.64F FOG
WARRENTON      CLOUDY    53  53 100 S6        29.59F FOG
CULPEPER*      CLOUDY    52  52 100 SW3       29.60S FOG
MANASSAS*      CLOUDY    54  52  94 S6        29.60S
LEESBURG*      FOG       50  50 100 S6        29.59S VSB 1/2
WINCHESTER     FOG       46  43  87 NW3       29.54F VSB 1
FRONT ROYAL*   CLOUDY    45  45 100 SE5       29.53S
LURAY*         CLOUDY    50  50 100 CALM      29.53F
$$

VAZ048-049-060>072-079>083-250200-
CENTRAL AND SOUTH CENTRAL VIRGINIA

CITY           SKY/WX    TMP DP  RH WIND       PRES   REMARKS
RICHMOND       LGT RAIN  63  61  93 S13       29.64S
CHESTERFIELD*  CLOUDY    63  55  77 S13G18    29.63F
PETERSBURG*    LGT RAIN  66  64  96 S6        29.65F
HANOVER        FOG       52  52 100 CALM      29.64F VSB 1/2
TAPPAHANNOCK*  CLOUDY    62  61  95 S7        29.64F
QUINTON*       CLOUDY    63  63  99 S8G17     29.64S
CHARLOTTSVILLE CLOUDY    51  50  96 S10       29.59F FOG
GORDONSVILLE*  CLOUDY    50  50 100 SW7       29.60F FOG
ORANGE*        RAIN      52  52 100 S8        29.62S
LOUISA*        FOG       52  52 100 S5        29.61S VSB 3/4
BUMPASS*       CLOUDY    53  52  98 SE6       29.62S VSB 1
FARMVILLE*     FOG       51  51 100 CALM      29.65S VSB 1/2
CREWE*         CLOUDY    63  62  96 S9        29.63S
FORT PICKETT*  CLOUDY    64  63  97 S15       29.64F
CHASE CITY*    CLOUDY    60  60 100 S5        29.64F
CLARKSVILLE*   CLOUDY    63  63 100 S9        29.64R
SOUTH HILL*    CLOUDY    63  62  94 S9        29.70F
LAWRENCEVILLE* CLOUDY    64  63  96 S7G18     29.64F
EMPORIA*       CLOUDY    63  63 100 SE6       29.68F
$$

VAZ088>098-250200-
SOUTHEAST VIRGINIA

CITY           SKY/WX    TMP DP  RH WIND       PRES   REMARKS
NORFOLK        CLOUDY    68  64  87 S13       29.69F
VIRGINIA BEACH CLOUDY    69  65  86 S12       29.70S
NORFOLK NAVAL  CLOUDY    71  65  81 S13       29.70S
WEST POINT*    CLOUDY    65  63  93 S10       29.67R
SALUDA*        MOCLDY    63  61  96 S10G16    29.67S
NEWPORT NEWS   CLOUDY    69  64  84 S9        29.69S
LANGLEY AFB    CLOUDY    65  65  99 SW8       29.69F
FORT EUSTIS    CLOUDY    63 N/A N/A SE7       29.66F
WILLIAMSBURG*  CLOUDY    63  63 100 SE8       29.68F
HR EXEC AP*    CLOUDY    66  64  94 S12       29.72S
FRANKLIN*      MOCLDY    66  66 100 S7        29.69S
WAKEFIELD      CLOUDY    66  63  90 S6        29.67F
$$

VAZ020-022-025-037-045-250200-
WEST CENTRAL AND SOUTHWEST VIRGINIA

CITY           SKY/WX    TMP DP  RH WIND       PRES   REMARKS
STAUNTON*      CLOUDY    53  51  94 CALM      29.57F
WAYNESBORO*    CLOUDY    56  54  92 S10G16    29.56F
HOT SPRINGS VA RAIN      51  51 100 SW13G23   29.58R VSB<1/4
LYNCHBURG      LGT RAIN  47  47 100 S5        29.64F FOG
DANVILLE       CLOUDY    50  48  93 CALM      29.64F
SOUTH BOSTON*  CLOUDY    49  48  95 CALM      29.64S
MARTINSVILLE   LGT RAIN  49  49 100 CALM      29.66F
ROANOKE        CLOUDY    49  48  97 VRB3      29.64R
BLACKSBURG     CLOUDY    55  52  89 CALM      29.65R
DUBLIN*        CLOUDY    58  56  94 S13G18    29.62R
MARION*        CLOUDY    61  49  66 S7        29.63R
HILLSVILLE*    CLOUDY    53  52  99 S17G23    29.65R
RICHLANDS*     LGT RAIN  47  43  87 NW16G25   29.65R
WISE*          CLOUDY    45  43  93 W12G17    29.69R
ABINGDON*      CLOUDY    53  49  84 NW17G35   29.68R
$$

MDZ021>025-VAZ099-100-250200-
SOUTHERN MARYLAND AND THE DELMARVA PENINSULA

CITY           SKY/WX    TMP DP  RH WIND       PRES   REMARKS
PATUXENT RIVER FOG       52  51  97 SE8       29.61F VSB 1/2
BAY BRIDGE APT FOG       52  52 100 SE6       29.62F VSB 1
LEONARDTOWN    CLOUDY    54  52  94 CALM      29.64F VSB 1/2
DOVER          CLOUDY    63  63 100 S12       29.62S
GEORGETOWN     CLOUDY    64  62  93 SW7       29.66S
EASTON         FOG       59  59 100 SW6       29.66F VSB 1/2
CAMBRIDGE      CLOUDY    61  59  94 S9G16     29.65F
SALISBURY      CLOUDY    66  61  84 S12       29.66R
OCEAN CITY     CLOUDY    58  58 100 SW14G20   29.69R
WALLOPS ISLAND CLOUDY    54  54 100 SW16      29.69S FOG
ACCOMACK*      CLOUDY    61  59  94 S5        29.68F
$$

NCZ012>017-030>032-250200-
NORTH CENTRAL AND EASTERN NORTH CAROLINA

CITY           SKY/WX    TMP DP  RH WIND       PRES   REMARKS
ROANOKE RAPIDS CLOUDY    63  61  94 S8        29.68F
RALEIGH        CLOUDY    64  60  87 SW10      29.70R
ELIZABETH CITY CLOUDY    70  62  76 S14       29.75S
AHOSKIE*       CLOUDY    65  62  88 S6        29.70F
EDENTON*       CLOUDY    65  62  90 S15       29.75S
CURRITUCK*     CLOUDY    67  63  87 S7        29.75S
KILL DEVIL HLS DRIZZLE   64  64  98 SW6       29.78S
MANTEO         CLOUDY    61  61 100 S15       29.80S
CAPE HATTERAS  MOCLDY    60  60 100 SW8       29.84F FOG
TARBORO*       CLOUDY    68  62  80 S13       29.72S
GOLDSBORO      CLOUDY    68  66  94 S17G24    29.70F
WASHINGTON     MOCLDY    66  62  88 S6        29.76S
GREENVILLE     CLOUDY    68  63  83 S14G20    29.77S
NEW BERN       MOCLDY    68  62  81 S8        29.80S
WILMINGTON     LGT RAIN  67  65  93 S8        29.78F
$$

VAZ048-250200-
ELSEWHERE

CITY           SKY/WX    TMP DP  RH WIND       PRES   REMARKS
HARRISBURG PA  FOG       47  47 100 SE7       29.55F VSB 3/4
BALTIMORE      CLOUDY    53  52  96 S3        29.60F FOG
ANNAPOLIS      FOG       45  44  97 SE6       29.61F VSB 1/4
ANDREWS AFB    CLOUDY    54  54 100 S7        29.61F
PHILADELPHIA   CLOUDY    60  58  92 S9        29.61F
HENDERSON NC   CLOUDY    63  62  96 S14G20    29.67R
GREENSBORO     CLOUDY    61  61 100 S12       29.64F
ROCKY MOUNT    CLOUDY    66  62  87 S8        29.69F
$$

VAZ100-250200-
MARINE

STATION/POSITION TIME  TEMP    WIND        PRES    WAVE   SWELL
                       AIR SEA DIR/SP/G            HT/PER HT/PER
                 (UTC) (F)     (DEG/KT/KT) (MB)    (FT/S) (FT/S)
CAPE MAY NJ      0100   53 47  150/  9/ 12 1003.4F
LEWES DE         0100   63 44  230/  6/  9 1004.1R
15NM E FENWICK I 0100   52 46              1004.0R   7/ 6
OCEAN-CITY-INLET 0100   49 46  220/ 11/ 12 1004.8R
WACHAPREAGUE VA  0100   55 48  200/  4/  5 1005.5R
THOMAS POINT MD  0100   50 41  160/ 12/ 13 1003.9F
GOOSES REEF MD   0100   45     VRB 10/ 12  1001.8F
COVE POINT MD    0100   53     180/ 13/ 13 1002.5F
SOLOMONS ISLAND  0100      44                N/A
BISHOPS HEAD MD  0100   55 43  180/ 18/ 19 1003.3F
PINEY POINT MD   0100          130/  6/  8   N/A
POTOMAC MD       0100   47     110/  4/  6 1003.0F
CAMBRIDGE MD     0100   58 40  180/  5/  9 1003.3F
LEWISETTA VA     0100   62 42  200/ 11/ 14 1003.4R
RAPPAHANNOCK LGT 0100          160/ 18/ 18 1005.0F
STINGRAY PT      0100   51     180/ 12/ 14 1005.3F
YORK RVR RNG VA  0100   53     190/ 12/ 13 1004.4R
YORKTOWN VA      0100   65 45  200/  8/ 12 1004.6S
JAMESTOWN VA     0100   59     190/  8/ 10   N/A
DOMINION TERM VA 0100   60     190/ 10/ 13 1005.2F
KIPTOPEKE VA     0100      51  170/ 13/ 14   N/A
CHES BAY BRIDGE  0100   64 46  170/ 15/ 18 1004.9S
CAPE HENRY VA    0100   68     180/ 14/ 19 1004.5S
CHESAPEAKE LGHT  0000   58     190/ 29/ 30 1006.3F
WILLOUBY STN VA  0100   67     190/ 16/ 18 1005.7R
S CRANEY ISL VA  0100          180/ 11/ 13 1005.2S
CAPE HENRY BUOY  0100      48                N/A     5/ 7
1ST LANDING BUOY 0100   60     190/ 14/ 16 1005.3R
CAPE CHARLES BUO 0100      47                N/A     4/ 6   2/13
64NM E OF VA BCH 0100   59 53  190/ 17/ 21 1007.4R   7/ 7
DUCK PIER NC     0100   63 50  190/ 16/ 20 1007.3S
44100 DUCK FRF   0100      50                N/A     4/ 7   2/11
44056 DUCK FRF   0100      50                N/A     4/ 7   2/11
OREGON INLET NC  0100   57 52  190/ 17/ 20 1009.6S
HATTERAS NC      0100   62 55  220/  8/ 10 1010.7F
DIAMOND SHLS NC  0100   68                 1010.9R   8/ 7
CAPE LOOKOUT NC  0000   64     230/  3/  5 1010.1S
$$



USA.gov is the U.S. government's official web portal to all federal, state and local government web resources and services.